Regional Weather Roundup
Issued by NWS

Home | Current Version | Previous Version | Graphics & Text | Print | Product List | Glossary On
Versions: 1 2 3 4 5 6 7 8 9 10 11 12 13 14 15 16 17 18 19 20 21 22 23 24 25 26 27 28 29 30 31 32 33 34 35 36 37 38 39 40 41 42 43 44 45 46 47 48 49 50
351
ASUS43 KLMK 291302
RWRKY
KENTUCKY REGIONAL WEATHER ROUNDUP
NATIONAL WEATHER SERVICE LOUISVILLE KY
900 AM EDT WED MAR 29 2017

NOTE "FAIR" INDICATES FEW OR NO CLOUDS BELOW 12,000 FEET
WITH NO SIGNIFICANT WEATHER AND/OR OBSTRUCTIONS TO VISIBILITY.

KYZ001>023-026-027-061>063-070>075-291400-
WESTERN AND SOUTH CENTRAL KENTUCKY

CITY           SKY/WX    TMP DP  RH WIND       PRES   REMARKS
PADUCAH        SUNNY     54  50  86 E13       30.00F
HENDERSON      SUNNY     46  46 100 E12       30.07R
OWENSBORO      CLOUDY    54  49  83 E10       30.10R
HOPKINSVILLE   SUNNY     53  53 100 E10       30.03S
BOWLING GREEN  SUNNY     55  52  89 E5        30.08R FOG
GLASGOW        NOT AVBL
$$

KYZ024-025-028>034-038-045-046-053-291400-
NORTH CENTRAL KENTUCKY

CITY           SKY/WX    TMP DP  RH WIND       PRES   REMARKS
LOUISVILLE/SDF CLOUDY    54  46  74 NE12      30.12R
LOUISVILLE/LOU CLOUDY    54  46  74 NE9       30.13R
FORT KNOX      SUNNY     52  49  89 NE8       30.09R
$$

KYZ035>037-039>044-047>052-055>060-089>105-291400-
NORTHEAST KENTUCKY

CITY           SKY/WX    TMP DP  RH WIND       PRES   REMARKS
LEXINGTON      CLOUDY    50  44  80 NE13      30.13R
COVINGTON      MOSUNNY   46  39  76 E12       30.17R
FRANKFORT      CLOUDY    51  44  77 NE9       30.13R
$$

KYZ054-064>069-076>088-106>120-291400-
SOUTHEAST KENTUCKY

CITY           SKY/WX    TMP DP  RH WIND       PRES   REMARKS
JACKSON        CLOUDY    52  48  86 VRB5      30.12S
LONDON         CLOUDY    54  50  86 NE5       30.11R
SOMERSET       NOT AVBL
MIDDLESBORO    CLOUDY    50  50 100 CALM      30.11R
MONTICELLO     MOSUNNY   56  53  90 N6        30.11S
$$





USA.gov is the U.S. government's official web portal to all federal, state and local government web resources and services.